Waarnemingen

Advertentie
Mijn weer
Marseille/Marignane, Frankrijk (7650): temperatuur & dauwpunt: 13.02.2020 22:00:00 - 19.02.2020 22:00:00 (CET)Marseille/Marignane, Frankrijk (7650): temperatuur 5cm: 13.02.2020 22:00:00 - 19.02.2020 22:00:00 (CET)Marseille/Marignane, Frankrijk (7650): temperatuur -20cm & temperatuur -100cm: 13.02.2020 22:00:00 - 19.02.2020 22:00:00 (CET)Marseille/Marignane, Frankrijk (7650): windsnelheid & windstoten: 13.02.2020 22:00:00 - 19.02.2020 22:00:00 (CET)Marseille/Marignane, Frankrijk (7650): windrichting: 13.02.2020 22:00:00 - 19.02.2020 22:00:00 (CET)Marseille/Marignane, Frankrijk (7650): luchtdruk: 13.02.2020 22:00:00 - 19.02.2020 22:00:00 (CET)Marseille/Marignane, Frankrijk (7650): zicht: 13.02.2020 22:00:00 - 19.02.2020 22:00:00 (CET)Marseille/Marignane, Frankrijk (7650): Zonneschijnduur: 13.02.2020 22:00:00 - 19.02.2020 22:00:00 (CET)Marseille/Marignane, Frankrijk (7650): neerslag: 13.02.2020 22:00:00 - 19.02.2020 22:00:00 (CET)
Datum & Tijd tt [°C] td [°C] tt 5cm [°C] tt -20cm [°C] tt -100cm [°C] ff [km/u] ff [kn] fx [km/u] fx [kn] dd ppp [hPa] vv [km] sd [min] rr [mm]
19.02.2020 22:00:00 11,0 2,8 8,1 10,5 12,3 31 17 54 29 NNW 1026,1 60 0 0,0
19.02.2020 21:00:00 11,7 2,7 8,6 10,5 12,2 37 20 56 30 NNW 1025,8 60 0 0,0
19.02.2020 20:00:00 12,5 2,9 9,5 10,6 12,2 37 20 57 31 NNW 1025,6 60 0 0,0
19.02.2020 19:00:00 12,9 2,4 9,6 10,7 12,3 39 21 58 32 NNW 1025,3 60 0 0,0
19.02.2020 18:00:00 13,7 3,7 10,0 10,6 12,2 37 20 53 28 NW 1024,7 33 52 0,0
19.02.2020 17:00:00 14,9 3,7 12,2 10,5 12,2 37 20 61 33 NW 1024,4 17 60 0,0
19.02.2020 16:00:00 15,4 3,5 13,6 10,3 12,3 39 21 54 29 NNW 1024,7 15 60 0,0
19.02.2020 15:00:00 15,3 3,4 15,1 10,0 12,2 35 19 55 30 NW 1025,7 16 60 0,0
19.02.2020 14:00:00 15,0 4,1 15,7 9,7 12,2 29 15 50 27 NW 1026,3 19 60 0,0
19.02.2020 13:00:00 13,8 5,2 17,2 9,5 12,2 27 15 47 25 WNW 1027,3 20 60 0,0
19.02.2020 12:00:00 13,4 3,7 15,3 9,3 12,2 38 21 50 27 WNW 1028,4 20 60 0,0
19.02.2020 11:00:00 12,0 4,2 11,2 9,2 12,2 37 20 49 27 WNW 1028,6 27 60 0,0
19.02.2020 10:00:00 9,8 4,2 8,1 9,3 12,2 37 20 44 24 WNW 1028,6 30 60 0,0
19.02.2020 09:00:00 8,4 3,6 5,5 9,4 12,2 33 18 41 22 W 1028,6 32 49 0,0
19.02.2020 08:00:00 7,8 3,5 3,6 9,5 12,2 28 15 40 21 WNW 1028,2 50 6 0,0
19.02.2020 07:00:00 7,0 1,5 3,7 9,6 12,2 23 12 42 23 WNW 1027,9 60 0 0,0
19.02.2020 06:00:00 6,7 2,2 3,5 9,7 12,2 29 16 40 22 WNW 1027,5 60 0 0,0
19.02.2020 05:00:00 6,8 1,9 3,9 9,8 12,2 25 13 40 21 WNW 1027,1 60 0 0,0
19.02.2020 04:00:00 7,4 0,8 3,0 9,9 12,2 18 10 37 20 NNW 1027,0 60 0 0,0
19.02.2020 03:00:00 7,4 0,6 4,3 10,0 12,2 11 6 54 29 N 1027,7 60 0 0,0
19.02.2020 02:00:00 7,8 2,5 4,4 10,2 12,2 40 22 51 28 WNW 1027,8 59 0 0,0
19.02.2020 01:00:00 9,6 0,7 5,8 10,3 12,2 20 11 43 23 NW 1027,7 60 0 0,0
19.02.2020 00:00:00 9,2 0,1 5,7 10,5 12,2 29 15 39 21 NW 1028,0 60 0 0,0
18.02.2020 23:00:00 9,3 -0,1 6,0 10,6 12,2 29 16 40 22 NW 1028,4 60 0 0,0
18.02.2020 22:00:00 9,9 -0,1 6,5 10,8 12,2 33 18 46 25 NW 1028,0 60 0 0,0
18.02.2020 21:00:00 10,5 -0,1 6,9 10,9 12,2 35 19 57 31 NW 1027,8 60 0 0,0
18.02.2020 20:00:00 10,7 0,1 6,9 11,0 12,2 31 17 47 25 NW 1027,7 60 0 0,0
18.02.2020 19:00:00 11,0 1,0 7,7 11,1 12,2 38 20 56 30 NW 1027,2 60 0 0,0
18.02.2020 18:00:00 12,3 0,1 8,5 11,2 12,2 39 21 63 34 NW 1026,8 25 50 0,0
18.02.2020 17:00:00 13,3 1,0 10,8 11,2 12,2 37 20 70 38 NW 1026,6 18 60 0,0
18.02.2020 16:00:00 13,7 0,7 12,6 11,1 12,2 36 19 58 32 NNW 1026,8 18 60 0,0
18.02.2020 15:00:00 13,6 1,9 14,0 10,9 12,2 40 22 61 33 NW 1027,2 15 60 0,0
18.02.2020 14:00:00 13,4 2,6 15,7 10,7 12,2 36 19 60 33 NW 1027,8 15 60 0,0
18.02.2020 13:00:00 13,0 2,8 15,5 10,6 12,2 43 23 63 34 NW 1028,3 17 60 0,0
18.02.2020 12:00:00 12,3 3,5 12,1 10,5 12,2 41 22 60 33 NW 1028,9 22 60 0,0
18.02.2020 11:00:00 11,5 2,8 9,8 10,5 12,2 41 22 62 34 NW 1029,1 29 60 0,0
18.02.2020 10:00:00 10,8 3,1 7,6 10,5 12,2 36 19 56 31 NW 1028,9 36 60 0,0
18.02.2020 09:00:00 10,0 3,0 6,0 10,7 12,2 34 18 48 26 NW 1029,1 10 22 0,0
18.02.2020 08:00:00 8,5 4,1 5,5 10,8 12,2 36 19 49 26 WNW 1028,7 60 0 0,0
18.02.2020 07:00:00 8,9 4,5 5,9 10,9 12,2 31 17 51 28 WNW 1028,2 60 0 0,0
18.02.2020 06:00:00 8,5 4,7 6,0 11,0 12,2 41 22 52 28 WNW 1027,7 60 0 0,0
18.02.2020 05:00:00 8,5 4,9 6,0 11,1 12,2 34 18 44 24 WNW 1028,0 60 0 0,0
18.02.2020 04:00:00 9,0 5,6 6,7 11,2 12,2 35 19 42 23 WNW 1027,9 60 0 0,0
18.02.2020 03:00:00 9,4 6,5 6,8 11,3 12,2 23 12 40 22 WNW 1028,3 60 0 0,0
18.02.2020 02:00:00 10,5 6,3 7,4 11,4 12,2 31 17 46 25 NW 1028,2 60 0 0,0
18.02.2020 01:00:00 9,9 7,1 7,6 11,5 12,2 22 12 38 20 WNW 1028,1 60 0 0,0
18.02.2020 00:00:00 10,2 8,1 8,0 11,5 12,2 29 16 35 19 WNW 1027,8 60 0 0,0
17.02.2020 23:00:00 10,6 8,9 8,7 11,6 12,2 26 14 37 20 WNW 1027,5 60 0 0,0
17.02.2020 22:00:00 10,9 9,5 9,6 11,6 12,2 24 13 31 17 W 1027,1 38 0 0,0
17.02.2020 21:00:00 12,1 11,5 11,3 11,6 12,2 6 4 12 6 ZW 1026,6 5 0 0,0
17.02.2020 20:00:00 12,3 11,7 11,6 11,6 12,2 10 5 15 8 W 1026,5 8 0 0,0
17.02.2020 19:00:00 12,4 11,8 11,6 11,6 12,2 9 5 11 6 WNW 1025,9 8 0 0,0
17.02.2020 18:00:00 13,0 11,7 12,3 11,5 12,2 5 3 15 8 ZW 1025,1 13 0 0,0
17.02.2020 17:00:00 13,4 12,0 12,6 11,5 12,1 8 4 12 7 Z 1024,7 17 0 0,0
17.02.2020 16:00:00 13,5 11,7 13,2 11,4 12,2 8 4 17 9 Z 1024,6 19 0 0,0
17.02.2020 15:00:00 13,3 12,4 13,1 11,3 12,2 12 7 21 11 ZO 1024,8 15 0 0,0
17.02.2020 14:00:00 13,7 12,6 13,6 11,1 12,2 12 7 21 11 ZO 1025,4 16 0 0,6
17.02.2020 13:00:00 13,4 12,6 13,2 11,0 12,2 14 8 23 12 ZO 1026,0 2,4 0 0,6
17.02.2020 12:00:00 13,4 12,3 12,9 11,0 12,2 18 10 31 17 ZO 1026,6 4,9 0 0,0
17.02.2020 11:00:00 13,2 12,3 12,7 10,9 12,2 16 9 27 15 ZZO 1026,5 8 0 0,4
17.02.2020 10:00:00 13,1 12,2 12,3 10,9 12,1 16 9 22 12 ZO 1026,3 8 0 0,0
17.02.2020 09:00:00 12,8 12,0 12,1 10,9 12,1 13 7 25 13 ZZO 1026,1 3,1 0 0,2
17.02.2020 08:00:00 13,2 11,3 12,1 10,9 12,2 17 9 24 13 ZO 1025,5 18 0 0,0
17.02.2020 07:00:00 13,2 11,3 12,4 10,9 12,2 15 8 22 12 ZO 1025,4 33 0 0,0
17.02.2020 06:00:00 13,5 11,2 12,5 10,8 12,2 18 10 26 14 ZZO 1025,9 32 0 0,0
17.02.2020 05:00:00 13,4 11,1 12,4 10,8 12,2 14 8 23 12 OZO 1026,0 31 0 0,0
17.02.2020 04:00:00 13,3 10,5 12,4 10,8 12,2 13 7 20 11 OZO 1026,1 32 0 0,0
17.02.2020 03:00:00 13,3 10,5 12,3 10,8 12,2 14 8 24 13 OZO 1026,7 30 0 0,0
17.02.2020 02:00:00 13,3 10,5 12,3 10,8 12,2 18 10 26 14 OZO 1027,0 31 0 0,0
17.02.2020 01:00:00 13,3 10,5 12,4 10,8 12,2 17 9 24 13 OZO 1027,5 25 0 0,0
17.02.2020 00:00:00 13,3 10,7 11,9 10,8 12,2 16 9 22 12 OZO 1027,6 27 0 0,0
16.02.2020 23:00:00 12,9 10,6 11,8 10,7 12,2 10 5 24 13 ZO 1027,9 30 0 0,0
16.02.2020 22:00:00 13,3 10,7 12,4 10,7 12,2 13 7 28 15 ZO 1028,1 31 0 0,0
16.02.2020 21:00:00 13,5 10,5 12,4 10,7 12,2 15 8 30 16 ZO 1028,1 20 0 0,0
16.02.2020 20:00:00 13,4 10,2 11,2 10,7 12,2 14 8 23 13 ZO 1027,5 37 0 0,0
16.02.2020 19:00:00 13,0 10,0 11,5 10,6 12,2 18 10 33 18 ZO 1027,6 35 0 0,0
16.02.2020 18:00:00 13,7 10,7 13,0 10,5 12,1 19 11 32 17 ZO 1027,2 33 0 0,0
16.02.2020 17:00:00 14,1 10,7 13,8 10,4 12,2 20 11 32 17 ZZO 1027,3 34 0 0,0
16.02.2020 16:00:00 14,4 11,0 14,6 10,3 12,2 21 11 37 20 ZO 1027,4 30 0 0,0
16.02.2020 15:00:00 14,7 11,1 14,6 10,1 12,2 24 13 36 19 ZO 1027,4 30 0 0,0
16.02.2020 14:00:00 14,2 11,2 13,6 10,0 12,2 21 12 34 18 ZO 1027,6 18 0 0,0
16.02.2020 13:00:00 14,2 10,4 13,7 9,9 12,2 15 8 29 16 ZO 1028,3 19 0 0,0
16.02.2020 12:00:00 14,6 10,6 13,8 9,7 12,2 24 13 34 19 ZO 1028,1 27 0 0,0
16.02.2020 11:00:00 13,4 9,4 12,3 9,7 12,2 18 10 29 16 O 1028,2 20 0 0,0
16.02.2020 10:00:00 12,5 9,0 11,0 9,6 12,2 16 9 30 16 O 1028,4 19 0 0,0
16.02.2020 09:00:00 11,3 8,3 10,3 9,6 12,2 23 12 29 16 O 1027,9 19 0 0,0
16.02.2020 08:00:00 11,1 8,1 9,5 9,6 12,2 17 9 25 13 ONO 1027,9 19 0 0,0
16.02.2020 07:00:00 10,9 7,9 9,8 9,6 12,2 9 5 17 9 ZO 1027,4 16 0 0,0
16.02.2020 06:00:00 10,9 7,8 10,0 9,5 12,2 11 6 26 14 O 1026,9 20 0 0,0
16.02.2020 05:00:00 11,1 8,1 9,5 9,6 12,2 17 9 24 13 O 1026,9 19 0 0,0
16.02.2020 04:00:00 10,3 7,7 8,2 9,6 12,2 13 7 18 10 O 1027,3 20 0 0,0
16.02.2020 03:00:00 9,4 7,2 7,4 9,7 12,2 9 5 15 8 OZO 1028,3 20 0 0,0
16.02.2020 02:00:00 9,8 7,9 4,4 9,7 12,2 12 6 16 8 N 1029,2 19 0 0,0
16.02.2020 01:00:00 9,0 6,4 4,9 9,8 12,2 0 0 15 8 N 1028,2 38 0 0,0
16.02.2020 00:00:00 9,9 7,3 6,7 9,9 12,2 10 5 16 9 O 1028,0 26 0 0,0
15.02.2020 23:00:00 9,7 7,5 3,6 10,0 12,2 12 6 16 9 O 1028,2 30 0 0,0
15.02.2020 22:00:00 9,5 6,9 3,6 10,2 12,2 4 2 10 5 O 1028,9 30 0 0,0
15.02.2020 21:00:00 9,9 7,1 4,2 10,3 12,2 6 3 11 6 OZO 1028,2 26 0 0,0
15.02.2020 20:00:00 11,1 8,3 5,8 10,3 12,2 4 2 17 9 OZO 1027,9 58 0 0,0
15.02.2020 19:00:00 10,9 8,1 7,3 10,3 12,2 11 6 22 12 ZO 1027,0 58 0 0,0
15.02.2020 18:00:00 12,5 9,0 10,9 10,2 12,2 11 6 31 17 ZZO 1026,3 56 46 0,0
15.02.2020 17:00:00 13,9 9,7 13,5 9,9 12,2 18 10 31 17 Z 1026,3 20 60 0,0
15.02.2020 16:00:00 15,3 10,1 16,9 9,6 12,2 16 9 29 16 Z 1026,0 49 58 0,0
15.02.2020 15:00:00 15,2 10,2 18,3 9,2 12,2 16 9 24 13 W 1025,9 34 60 0,0
15.02.2020 14:00:00 15,3 8,5 19,6 8,9 12,2 11 6 21 11 W 1026,0 18 60 0,0
15.02.2020 13:00:00 12,6 7,9 21,3 8,5 12,2 12 7 16 9 W 1026,8 19 60 0,0
15.02.2020 12:00:00 13,3 8,4 21,7 8,2 12,2 8 5 11 6 W 1027,4 19 58 0,0
15.02.2020 11:00:00 11,3 7,4 13,3 8,1 12,2 4 2 14 7 WZW 1027,4 19 60 0,0
15.02.2020 10:00:00 9,4 6,1 8,3 8,2 12,2 7 4 10 6 W 1027,0 14 60 0,0
15.02.2020 09:00:00 8,9 5,5 -0,4 8,4 12,2 5 3 18 10 W 1026,7 20 60 0,0
15.02.2020 08:00:00 2,7 1,2 -2,1 8,5 12,2 12 7 15 8 ZO 1026,0 16 0 0,0
15.02.2020 07:00:00 3,3 1,3 -1,5 8,6 12,2 5 3 10 5 WZW 1025,5 20 0 0,0
15.02.2020 06:00:00 2,8 1,6 -1,3 8,8 12,2 6 3 14 7 ZO 1025,2 18 0 0,0
15.02.2020 05:00:00 2,1 0,3 -1,6 9,0 12,2 9 5 11 6 ZO 1025,1 19 0 0,0
15.02.2020 04:00:00 2,2 0,4 -1,2 9,1 12,2 8 5 13 7 ZO 1024,9 20 0 0,0
15.02.2020 03:00:00 2,8 0,8 -0,9 9,4 12,2 9 5 16 8 ZO 1025,0 27 0 0,0
15.02.2020 02:00:00 2,7 0,9 -0,7 9,5 12,2 12 6 16 8 ZO 1024,9 23 0 0,0
15.02.2020 01:00:00 4,7 2,2 -0,1 9,7 12,2 9 5 14 7 ZO 1024,7 27 0 0,0
15.02.2020 00:00:00 4,4 1,9 0,3 9,9 12,2 10 5 13 7 ZZO 1024,0 35 0 0,0
14.02.2020 23:00:00 5,7 2,5 1,0 10,0 12,2 9 5 14 8 ZO 1023,6 30 0 0,0
14.02.2020 22:00:00 7,1 3,2 2,8 10,1 12,2 5 3 21 11 N 1023,3 35 0 0,0
14.02.2020 21:00:00 9,8 4,6 4,1 10,3 12,2 13 7 17 9 W 1022,9 53 0 0,0
14.02.2020 20:00:00 11,4 3,4 6,3 10,3 12,2 14 8 56 30 N 1022,7 60 0 0,0
14.02.2020 19:00:00 12,2 3,4 8,4 10,4 12,2 21 12 54 29 NNW 1022,4 60 0 0,0
14.02.2020 18:00:00 13,2 3,5 9,5 10,4 12,2 31 17 47 26 NW 1022,0 57 45 0,0
14.02.2020 17:00:00 14,4 4,1 12,4 10,3 12,2 38 21 61 33 NW 1021,8 15 60 0,0
14.02.2020 16:00:00 15,0 4,4 15,0 10,0 12,2 40 21 66 35 NW 1021,7 12 60 0,0
14.02.2020 15:00:00 15,2 4,0 15,8 9,8 12,2 43 23 69 37 NW 1022,1 14 60 0,0
14.02.2020 14:00:00 15,0 3,8 16,2 9,5 12,2 40 22 69 37 NW 1022,2 14 60 0,0
14.02.2020 13:00:00 14,5 4,8 17,9 9,3 12,2 47 26 70 38 NW 1022,6 16 60 0,2
14.02.2020 12:00:00 14,0 5,6 15,4 9,1 12,2 51 28 72 39 NW 1023,3 21 60 0,0
14.02.2020 11:00:00 13,2 4,6 11,4 9,0 12,2 44 24 62 33 NW 1023,6 32 60 0,0
14.02.2020 10:00:00 10,8 6,0 8,4 9,0 12,2 30 16 39 21 W 1023,8 19 60 0,0
14.02.2020 09:00:00 9,3 4,9 5,9 9,1 12,2 22 12 42 23 WNW 1023,2 19 58 0,0
14.02.2020 08:00:00 8,6 4,0 4,2 9,2 12,2 28 15 39 21 W 1022,3 20 0 0,0
14.02.2020 07:00:00 7,1 3,5 4,3 9,2 12,2 23 12 41 22 WNW 1021,3 19 0 0,0
14.02.2020 06:00:00 8,2 4,6 5,5 9,4 12,2 34 19 45 24 WNW 1021,0 19 0 0,0
14.02.2020 05:00:00 8,9 4,3 2,6 9,4 12,2 26 14 36 19 W 1021,4 18 0 0,0
14.02.2020 04:00:00 8,4 4,6 3,3 9,5 12,2 17 9 35 19 NW 1020,9 39 0 0,0
14.02.2020 03:00:00 10,0 5,6 6,2 9,6 12,2 26 14 39 21 NW 1020,3 20 0 0,0
14.02.2020 02:00:00 9,4 7,7 2,5 9,7 12,2 16 9 23 13 NNW 1020,2 26 0 0,0
14.02.2020 01:00:00 9,2 8,9 2,7 9,8 12,2 6 4 10 5 WNW 1020,1 1,3 0 0,0
14.02.2020 00:00:00 9,5 8,6 3,9 9,9 12,2 5 3 17 9 N 1020,7 8 0 0,0
13.02.2020 23:00:00 9,3 7,7 5,6 10,0 12,2 3 1 12 7 OZO 1020,3 7 0 0,0
13.02.2020 22:00:00 9,8 8,7 5,9 10,0 12,2 6 4 17 9 OZO 1020,1 10 0 0,0

tt = temperatuur
td = dauwpunt
tt 5cm = temperatuur 5cm
tt -20cm = temperatuur -20cm
tt -100cm = temperatuur -100cm
ff = windsnelheid
fx = windstoten
dd = windrichting
ppp = luchtdruk
vv = zicht
sd = Zonneschijnduur
rr = neerslag

Weerstations in de omgeving